Hourly Data Report for May 06, 2018

CLYDE RIVER A
NUNAVUT
Current Station Operator: NAVCAN

70°29'09.000" N
68°31'01.000" W
26.50 m
2400804
71090
YCY

Download Data

Hourly Data (May 2018)
Hourly Data Report for May 6, 2018
TIME
LST
Temp Definition
°C
Dew Point Definition
°C
Rel Hum Definition
%
Precip. Amount Definition
mm

Wind Dir Definition
10's deg

Wind Spd Definition
km/h
Visibility Definition
km
Stn Press Definition
kPa
Hmdx Definition


Wind Chill Definition


Weather Definition


00:00 -23.9 -26.2 82 0.0 25 8 16.1 100.49   -31 LegendNANA
01:00 -24.4 -26.8 81 0.0 27 5 16.1 100.52   -29 LegendNANA
02:00 -24.5 -26.6 83 0.0 26 4 16.1 100.57   -28 LegendNANA
03:00 -23.4 -25.4 84 0.0 28 5 16.1 100.62   -28 LegendNANA
04:00 -23.6 -25.9 82 0.0 34 5 16.1 100.64   -28 LegendNANA
05:00 -21.7 -23.8 84 0.0 25 5 16.1 100.67   -26 LegendNANA
06:00 -20.3 -22.9 80 0.0 28 9 16.1 100.67   -27 LegendNANA
07:00 -19.5 -22.7 76 0.0 28 4 16.1 100.69   -23 LegendNANA
08:00 -20.1 -23.3 76 0.0 27 4 16.1 100.70   -24 LegendNANA
09:00 -16.8 -21.1 70 0.0 25 4 16.1 100.70   -20 LegendNANA
10:00 -16.6 -20.1 75 0.0 16 5 16.1 100.69   -20 LegendNANA
11:00 -15.5 -19.0 75 0.0 LegendMM 4 16.1 100.69   -18 LegendNANA
12:00 -15.3 -19.3 72 0.0   0 16.1 100.70     LegendNANA
13:00 -14.7 -18.1 76 0.0 13 4 16.1 100.71   -18 LegendNANA
14:00 -14.4 -17.6 77 0.0 14 5 16.1 100.73   -18 LegendNANA
15:00 -14.3 -17.3 78 0.0   0 16.1 100.73     LegendNANA
16:00 -14.9 -17.5 81 0.0 10 5 16.1 100.73   -18 LegendNANA
17:00 -15.8 -18.4 81 0.0 8 8 16.1 100.73   -21 LegendNANA
18:00 -17.2 -19.7 81 0.0 6 5 16.1 100.74   -21 LegendNANA
19:00 -20.0 -22.5 81 0.0 35 5 16.1 100.73   -24 LegendNANA
20:00 -22.3 -24.6 82 0.0 31 4 16.1 100.72   -26 LegendNANA
21:00 -22.2 -24.0 86 0.0 28 4 16.1 100.70   -26 LegendNANA
22:00 -22.7 -24.7 84 0.0 27 5 16.1 100.68   -27 LegendNANA
23:00 -23.3 -25.8 81 0.0 28 5 16.1 100.65   -28 LegendNANA

Notes on Data Quality.

Legend

  • E = Estimated
  • M = Missing
  • NA = Not Available*
  • [empty] = Indicates an unobserved value
Date modified: